Terug naar catalogus

DMSP 5D-2 F13 DEB

ActiefSSO
NORAD 40415·DEBRIS·🇺🇸 United States

Gelanceerd Mar 24, 1995 vanaf Vandenberg Space Force Base

Loading…

Volgende Passages (komende 24 uur)

TLE

VersSource: Space-Track

Epoch: Sep 14, 2026, 12:55 UTC

1 40415U 95015AC  26257.53858086  .00001354  00000-0  54428-3 0  9998
2 40415  98.7160 285.1034 0006893  81.0429 279.1533 14.29802530598815

Volg DMSP 5D-2 F13 DEB in realtime met AllMySat

Download on the App Store